TimeEDT,TemperatureF,Dew PointF,Humidity,Sea Level PressureIn,VisibilityMPH,Wind Direction,Wind SpeedMPH,Gust SpeedMPH,PrecipitationIn,Events,Conditions,WindDirDegrees,DateUTC
12:15 AM,62.1,57.0,84,29.86,10.0,SW,12.7,20.7,N/A,,Scattered Clouds,220,2013-06-25 04:15:00
12:35 AM,62.6,57.2,82,29.86,10.0,SW,12.7,19.6,N/A,,Scattered Clouds,220,2013-06-25 04:35:00
12:55 AM,63.0,57.4,82,29.87,10.0,SSW,12.7,19.6,N/A,,Clear,210,2013-06-25 04:55:00
1:15 AM,63.0,57.4,82,29.86,10.0,SSW,11.5,16.1,N/A,,Mostly Cloudy,210,2013-06-25 05:15:00
1:35 AM,63.0,57.6,82,29.86,10.0,SW,11.5,-,N/A,,Scattered Clouds,220,2013-06-25 05:35:00
1:55 AM,63.1,58.1,84,29.84,10.0,SSW,10.4,17.3,N/A,,Clear,210,2013-06-25 05:55:00
2:14 AM,63.5,58.3,83,29.83,10.0,SSW,11.5,17.3,N/A,,Clear,210,2013-06-25 06:14:00
2:35 AM,63.9,58.6,83,29.83,10.0,SSW,9.2,16.1,N/A,,Clear,210,2013-06-25 06:35:00
2:55 AM,62.8,58.1,85,29.84,10.0,SW,9.2,-,N/A,,Clear,220,2013-06-25 06:55:00
3:14 AM,62.6,58.1,85,29.84,10.0,SW,9.2,-,N/A,,Clear,220,2013-06-25 07:14:00
3:35 AM,62.2,58.1,86,29.84,10.0,SSW,13.8,21.9,N/A,,Scattered Clouds,210,2013-06-25 07:35:00
3:55 AM,61.2,57.9,89,29.83,10.0,SW,12.7,20.7,N/A,,Mostly Cloudy,220,2013-06-25 07:55:00
4:15 AM,61.7,58.3,89,29.83,10.0,SW,13.8,18.4,N/A,,Overcast,220,2013-06-25 08:15:00
4:35 AM,61.7,58.1,88,29.82,10.0,SSW,12.7,19.6,N/A,,Mostly Cloudy,210,2013-06-25 08:35:00
4:54 AM,60.8,58.1,91,29.81,10.0,SW,11.5,19.6,N/A,,Mostly Cloudy,220,2013-06-25 08:54:00
5:15 AM,58.6,56.3,92,29.83,7.0,SW,16.1,24.2,N/A,,Scattered Clouds,220,2013-06-25 09:15:00
5:35 AM,58.6,56.5,93,29.83,7.0,SW,10.4,20.7,N/A,,Mostly Cloudy,230,2013-06-25 09:35:00
5:55 AM,59.7,56.8,90,29.83,10.0,SW,12.7,24.2,N/A,,Scattered Clouds,230,2013-06-25 09:55:00
6:15 AM,61.5,57.6,87,29.83,10.0,SW,8.1,-,N/A,,Mostly Cloudy,230,2013-06-25 10:15:00
6:35 AM,61.0,57.2,87,29.81,10.0,SW,10.4,-,N/A,,Mostly Cloudy,220,2013-06-25 10:35:00
6:55 AM,59.5,56.3,89,29.83,10.0,WSW,8.1,-,N/A,,Scattered Clouds,250,2013-06-25 10:55:00
7:15 AM,59.0,55.6,88,29.83,10.0,WSW,4.6,-,N/A,,Overcast,240,2013-06-25 11:15:00
7:35 AM,59.4,55.4,87,29.84,10.0,WSW,3.5,-,N/A,,Scattered Clouds,250,2013-06-25 11:35:00
7:55 AM,59.2,55.4,87,29.84,10.0,SW,4.6,-,N/A,,Scattered Clouds,230,2013-06-25 11:55:00
8:15 AM,60.1,56.3,87,29.84,10.0,SW,5.8,-,N/A,,Scattered Clouds,220,2013-06-25 12:15:00
8:34 AM,59.5,56.8,91,29.84,7.0,WSW,5.8,-,N/A,Rain,Rain,240,2013-06-25 12:34:00
8:55 AM,59.0,57.2,94,29.85,10.0,SW,5.8,-,N/A,,Overcast,220,2013-06-25 12:55:00
9:15 AM,58.5,57.0,95,29.83,10.0,South,5.8,-,N/A,,Mostly Cloudy,190,2013-06-25 13:15:00
9:35 AM,61.9,60.1,94,29.83,10.0,SW,5.8,-,N/A,,Scattered Clouds,220,2013-06-25 13:35:00
9:55 AM,64.8,61.0,88,29.83,10.0,SW,9.2,-,N/A,,Scattered Clouds,220,2013-06-25 13:55:00
10:15 AM,64.4,59.9,85,29.84,10.0,SSW,9.2,-,N/A,,Clear,210,2013-06-25 14:15:00
10:35 AM,65.3,61.2,86,29.84,10.0,SW,6.9,-,N/A,,Clear,220,2013-06-25 14:35:00
10:55 AM,66.9,61.5,83,29.85,10.0,SW,12.7,17.3,N/A,,Scattered Clouds,220,2013-06-25 14:55:00
11:14 AM,64.9,61.2,88,29.85,7.0,SW,11.5,17.3,N/A,,Overcast,220,2013-06-25 15:14:00
11:35 AM,64.0,60.8,89,29.87,7.0,SSW,9.2,17.3,N/A,,Overcast,210,2013-06-25 15:35:00
11:55 AM,63.1,60.1,90,29.86,5.0,SW,10.4,18.4,N/A,,Overcast,220,2013-06-25 15:55:00
12:15 PM,63.7,60.4,89,29.86,5.0,SW,10.4,-,N/A,,Overcast,220,2013-06-25 16:15:00
12:35 PM,63.5,59.7,87,29.86,7.0,SW,11.5,17.3,N/A,,Overcast,230,2013-06-25 16:35:00
12:54 PM,63.7,59.5,86,29.86,7.0,SW,11.5,-,N/A,,Mostly Cloudy,220,2013-06-25 16:54:00
1:15 PM,62.8,58.6,86,29.86,5.0,SW,9.2,-,N/A,,Mostly Cloudy,220,2013-06-25 17:15:00
1:35 PM,64.9,59.9,84,29.86,7.0,WSW,10.4,16.1,N/A,,Overcast,240,2013-06-25 17:35:00
1:55 PM,66.7,60.3,80,29.85,10.0,WSW,11.5,-,N/A,,Scattered Clouds,240,2013-06-25 17:55:00
2:15 PM,64.6,58.8,82,29.86,7.0,SW,13.8,18.4,N/A,,Mostly Cloudy,230,2013-06-25 18:15:00
2:35 PM,65.8,60.1,82,29.85,7.0,SW,10.4,17.3,N/A,,Overcast,220,2013-06-25 18:35:00
2:55 PM,65.7,60.1,82,29.84,7.0,SW,11.5,-,N/A,,Overcast,230,2013-06-25 18:55:00
3:15 PM,67.3,60.3,78,29.85,7.0,SW,10.4,-,N/A,,Overcast,230,2013-06-25 19:15:00
3:35 PM,67.5,60.4,78,29.85,10.0,SSW,11.5,-,N/A,,Scattered Clouds,210,2013-06-25 19:35:00
3:55 PM,67.5,60.6,79,29.84,10.0,SW,12.7,-,N/A,,Scattered Clouds,230,2013-06-25 19:55:00
4:14 PM,65.3,59.9,83,29.84,10.0,SW,12.7,17.3,N/A,,Clear,230,2013-06-25 20:14:00
4:35 PM,65.8,60.1,82,29.85,10.0,SW,15.0,21.9,N/A,,Clear,220,2013-06-25 20:35:00
4:55 PM,65.1,59.9,83,29.84,10.0,SW,15.0,21.9,N/A,,Clear,220,2013-06-25 20:55:00
5:15 PM,64.8,59.9,84,29.84,10.0,SW,12.7,17.3,N/A,,Clear,220,2013-06-25 21:15:00
5:35 PM,64.0,58.8,83,29.84,10.0,SW,15.0,25.3,N/A,,Scattered Clouds,230,2013-06-25 21:35:00
5:55 PM,60.6,57.0,88,29.84,10.0,SW,17.3,23.0,N/A,,Overcast,220,2013-06-25 21:55:00
6:15 PM,61.5,57.4,86,29.83,10.0,SW,15.0,19.6,N/A,,Mostly Cloudy,220,2013-06-25 22:15:00
6:35 PM,62.1,57.7,86,29.83,10.0,SW,16.1,21.9,N/A,,Clear,220,2013-06-25 22:35:00
6:54 PM,61.9,57.6,86,29.83,10.0,SSW,13.8,21.9,N/A,,Clear,210,2013-06-25 22:54:00
7:15 PM,59.9,56.7,89,29.83,10.0,SW,11.5,17.3,N/A,,Clear,230,2013-06-25 23:15:00
7:35 PM,59.9,56.7,89,29.83,10.0,SW,11.5,16.1,N/A,,Clear,230,2013-06-25 23:35:00
7:55 PM,60.1,57.2,90,29.83,10.0,WSW,9.2,-,N/A,,Clear,240,2013-06-25 23:55:00
8:15 PM,60.8,57.4,88,29.82,10.0,WSW,6.9,-,N/A,,Clear,240,2013-06-26 00:15:00
8:35 PM,60.4,57.4,90,29.82,10.0,SW,5.8,-,N/A,,Clear,230,2013-06-26 00:35:00
8:55 PM,59.9,57.4,91,29.83,10.0,Calm,Calm,-,N/A,,Clear,0,2013-06-26 00:55:00
9:15 PM,58.3,55.9,92,29.83,10.0,WSW,5.8,-,N/A,,Clear,250,2013-06-26 01:15:00
9:34 PM,57.2,55.4,94,29.83,10.0,Calm,Calm,-,N/A,,Clear,0,2013-06-26 01:34:00
9:55 PM,56.3,55.0,96,29.83,10.0,Calm,Calm,-,N/A,,Clear,0,2013-06-26 01:55:00
10:14 PM,56.1,54.9,96,29.84,10.0,Calm,Calm,-,N/A,,Clear,0,2013-06-26 02:14:00
10:35 PM,55.6,54.9,97,29.84,10.0,Calm,Calm,-,N/A,,Clear,0,2013-06-26 02:35:00
10:55 PM,54.9,54.3,98,29.84,10.0,Calm,Calm,-,N/A,,Clear,0,2013-06-26 02:55:00
11:14 PM,54.7,54.5,99,29.85,10.0,Calm,Calm,-,N/A,,Clear,0,2013-06-26 03:14:00
11:35 PM,54.7,54.5,99,29.84,10.0,Calm,Calm,-,N/A,,Clear,0,2013-06-26 03:35:00
11:55 PM,54.0,53.8,99,29.83,7.0,Calm,Calm,-,N/A,,Clear,0,2013-06-26 03:55:00